Home > Weather > Anaheim > Past weeks

Flag for USA Past Weather in Anaheim, California, USA — Yesterday and Last 2 Weeks

Now
82 °F

Sunny.


Feels Like: 82 °F
Forecast: 64 / 86 °F
Wind: 7 mph from Southwest

Location: Fullerton Municipal Airport

Current Time: Aug 23, 2016 at 2:15:35 PM

Latest Report: Aug 23, 2016 at 12:53 PM


Visibility: 10 mi

Pressure: 30.01 "Hg

Humidity: 44%

Dew Point: 58 °F

Location of AnaheimLocation

Past Weather in Anaheim — Graph

°F

Anaheim Temperature Yesterday

Maximum temperature yesterday: 84 °F (at 1:53 PM)
Minimum temperature yesterday: 66 °F (at 4:53 AM)
Average temperature yesterday: 74 °F

High & Low Weather Summary for the Past Weeks

 TemperatureHumidityPressure
High98 °F (Aug 15, 1:53 PM)93% (Aug 17, 6:53 AM)30.03 "Hg (Aug 17, 6:53 AM)
Low61 °F (Aug 17, 6:53 AM)13% (Aug 17, 2:53 PM)29.77 "Hg (Aug 17, 6:53 PM)
Average75 °F60%29.88 "Hg
* Reported Aug 8 12:53 PM — Aug 23 12:53 PM, Anaheim, Weather by CustomWeather, © 2016

Note: Actual official high and low records may vary slightly from our data, if they occured in-between our weather recording intervals... More about our weather records

Advertising

Anaheim Weather History for the Previous 24 Hours

Scroll right to see more
 ConditionsComfort  
Time TempWeatherWind HumidityBarometerVisibility
12:53 PM
Tue, Aug 23
82 °FSunny.7 mph44%30.01 "Hg10 mi
11:53 AM82 °FSunny.5 mph46%30.02 "Hg10 mi
10:53 AM78 °FSunny.5 mph54%30.03 "Hg10 mi
9:53 AM76 °FSunny.No wind60%30.02 "Hg10 mi
8:53 AM71 °FSunny.No wind71%30.01 "Hg9 mi
7:53 AM69 °FSunny.3 mph79%30.00 "Hg8 mi
6:53 AM66 °FClear.No wind81%29.98 "Hg10 mi
5:53 AM66 °FClear.No wind78%29.96 "Hg10 mi
4:53 AM67 °FClear.No wind79%29.94 "Hg10 mi
3:53 AM67 °FClear.No wind76%29.94 "Hg10 mi
2:53 AM67 °FClear.No wind76%29.94 "Hg10 mi
1:53 AM68 °FClear.No wind76%29.94 "Hg10 mi
12:53 AM69 °FClear.No wind73%29.94 "Hg10 mi
11:53 PM
Mon, Aug 22
70 °FClear.No wind73%29.94 "Hg10 mi
10:53 PM70 °FClear.No wind73%29.93 "Hg10 mi
9:53 PM71 °FClear.No wind68%29.91 "Hg10 mi
8:53 PM72 °FClear.6 mph57%29.90 "Hg10 mi
7:53 PM75 °FSunny.5 mph58%29.88 "Hg10 mi
6:53 PM78 °FSunny.6 mph46%29.87 "Hg10 mi
5:53 PM79 °FSunny.7 mph47%29.87 "Hg10 mi
4:53 PM81 °FSunny.7 mph45%29.87 "Hg10 mi
3:53 PM81 °FSunny.10 mph47%29.88 "Hg10 mi
2:53 PM84 °FSunny.10 mph43%29.88 "Hg10 mi
Weather by CustomWeather, © 2016

See weather overviewHow to use our weather pages